GW3792 Weather Reports


time (UTC)temp
C
wind
direction
speed
KPH
gust
KPH
rain 1hr
cm
rain 24hr
cm
rain mn
cm
humidity
%
barometer
mb
20260507225047 20 261 9.7 22.5 0.00 0.03 0.03 72 1009.5
20260507224653 20 298 8.0 24.1 0.00 0.03 0.03 72 1009.6
20260507224035 20 281 9.7 20.9 0.00 0.03 0.03 72 1009.6
20260507223541 20 247 8.0 20.9 0.00 0.03 0.03 72 1009.6
20260507223211 20 262 8.0 22.5 0.00 0.03 0.03 72 1009.6
20260507222542 20 286 9.7 24.1 0.00 0.03 0.03 72 1009.6
20260507222037 20 271 9.7 24.1 0.00 0.03 0.03 72 1009.7
20260507221619 20 261 8.0 22.5 0.00 0.03 0.03 72 1009.8
20260507221029 20 344 11.3 22.5 0.00 0.03 0.03 72 1009.8
20260507220517 20 300 9.7 19.3 0.00 0.03 0.03 72 1010.0
20260507220148 20 309 8.0 17.7 0.00 0.03 0.03 72 1009.9
20260507215534 20 93 6.4 20.9 0.00 0.03 0.03 72 1009.8
20260507215042 20 272 8.0 20.9 0.00 0.03 0.03 71 1009.9
20260507214632 21 319 6.4 22.5 0.00 0.03 0.03 71 1010.0
20260507214035 21 23 9.7 24.1 0.00 0.03 0.03 71 1009.9
20260507213521 21 51 11.3 27.4 0.00 0.03 0.03 71 1010.1
20260507213154 21 286 9.7 27.4 0.00 0.03 0.03 71 1010.0
20260507212545 21 329 12.9 22.5 0.00 0.03 0.03 71 1010.0
20260507212025 21 279 11.3 22.5 0.00 0.03 0.03 71 1009.9
20260507211641 21 298 11.3 22.5 0.00 0.03 0.03 70 1010.1
20260507211043 21 261 9.7 22.5 0.00 0.03 0.03 70 1010.0
20260507210530 21 28 8.0 19.3 0.00 0.03 0.03 70 1010.0
20260507210134 21 291 4.8 19.3 0.00 0.03 0.03 70 1009.9
20260507205516 21 325 8.0 19.3 0.00 0.03 0.03 70 1009.8
20260507205029 21 265 4.8 24.1 0.00 0.03 0.03 70 1010.0
20260507204614 21 288 12.9 24.1 0.00 0.03 0.03 69 1010.1
20260507204045 21 257 11.3 22.5 0.00 0.03 0.03 70 1010.0
20260507203544 21 262 9.7 24.1 0.00 0.03 0.03 69 1010.2
20260507203121 21 262 14.5 24.1 0.00 0.03 0.03 69 1010.4
20260507202531 21 261 12.9 19.3 0.00 0.03 0.03 68 1010.3
20260507202038 22 273 11.3 29.0 0.00 0.03 0.03 68 1010.2
20260507201622 22 275 14.5 20.9 0.00 0.03 0.03 67 1010.3
20260507201033 22 277 11.3 24.1 0.00 0.03 0.03 67 1010.1
20260507200542 22 334 14.5 25.7 0.00 0.03 0.03 66 1010.0
20260507200131 22 267 16.1 25.7 0.00 0.03 0.03 66 1009.9
20260507195539 22 280 12.9 30.6 0.00 0.03 0.03 66 1010.1
20260507195028 22 280 16.1 30.6 0.00 0.03 0.03 66 1010.2
20260507194632 22 310 17.7 32.2 0.00 0.03 0.03 66 1009.9
20260507194015 22 265 14.5 32.2 0.00 0.03 0.03 66 1010.0
20260507193531 22 286 14.5 27.4 0.00 0.03 0.03 67 1009.8
20260507193131 22 277 16.1 43.5 0.00 0.03 0.03 67 1009.7
20260507192526 22 263 25.7 43.5 0.00 0.03 0.03 66 1009.8
20260507192023 22 257 17.7 29.0 0.00 0.03 0.03 67 1009.8
20260507191635 22 267 16.1 24.1 0.00 0.03 0.03 68 1009.8
20260507191020 22 288 11.3 20.9 0.00 0.03 0.03 68 1009.8
20260507190529 22 261 14.5 22.5 0.00 0.03 0.03 68 1009.8
20260507190140 22 261 14.5 25.7 0.00 0.03 0.03 68 1009.8
20260507185516 22 271 16.1 27.4 0.00 0.03 0.03 67 1009.4
20260507185045 22 261 12.9 27.4 0.00 0.03 0.03 67 1009.5
20260507184625 22 265 14.5 27.4 0.00 0.03 0.03 67 1009.6
20260507184017 22 281 14.5 41.8 0.00 0.03 0.03 67 1009.4
20260507183521 22 262 16.1 41.8 0.00 0.03 0.03 67 1009.4
20260507183057 22 268 17.7 30.6 0.00 0.03 0.03 67 1009.5
20260507182516 22 281 14.5 37.0 0.00 0.03 0.03 67 1009.4
20260507182044 22 265 22.5 41.8 0.00 0.03 0.03 66 1009.2
20260507181622 22 268 17.7 41.8 0.00 0.03 0.03 66 1009.4
20260507181024 22 267 22.5 41.8 0.00 0.03 0.03 65 1009.4
20260507180546 22 262 19.3 33.8 0.00 0.03 0.03 65 1009.4
20260507180123 22 280 22.5 49.9 0.00 0.03 0.03 64 1009.3
20260507175533 22 277 25.7 51.5 0.00 0.03 0.03 64 1009.4
20260507175035 23 288 29.0 51.5 0.00 0.03 0.03 63 1009.6
20260507174638 23 257 25.7 53.1 0.00 0.03 0.03 63 1009.6
20260507174025 23 263 35.4 53.1 0.00 0.03 0.03 62 1009.6
20260507173546 23 266 33.8 53.1 0.00 0.03 0.03 62 1009.6
20260507173132 23 281 22.5 49.9 0.00 0.03 0.03 62 1009.7
20260507172532 23 290 29.0 56.3 0.00 0.03 0.03 63 1009.6
20260507172026 23 262 25.7 67.6 0.00 0.03 0.03 63 1009.8
20260507171606 24 259 38.6 61.2 0.00 0.03 0.03 61 1009.8
20260507171041 25 259 29.0 62.8 0.00 0.03 0.03 60 1009.8
20260507170533 25 261 41.8 62.8 0.00 0.03 0.03 61 1009.7
20260507170117 25 265 33.8 56.3 0.00 0.03 0.03 62 1010.1
20260507165542 25 277 29.0 56.3 0.00 0.03 0.03 61 1010.1
20260507165042 25 265 24.1 53.1 0.00 0.03 0.03 63 1010.0
20260507164641 25 263 32.2 53.1 0.00 0.03 0.03 63 1010.1
20260507164020 24 261 27.4 62.8 0.00 0.03 0.03 63 1010.1
20260507163527 24 277 35.4 62.8 0.00 0.03 0.03 63 1010.2
20260507163133 23 257 37.0 62.8 0.00 0.03 0.03 62 1010.2
20260507162540 23 294 33.8 62.8 0.00 0.03 0.03 64 1010.5
20260507162035 23 261 35.4 57.9 0.00 0.03 0.03 64 1010.6
20260507161631 23 263 33.8 64.4 0.00 0.03 0.03 62 1010.7
20260507161029 23 293 37.0 64.4 0.00 0.03 0.03 62 1010.7
20260507160541 23 261 29.0 70.8 0.00 0.03 0.03 63 1010.8
20260507160137 23 261 33.8 70.8 0.00 0.03 0.03 62 1010.8
20260507155535 23 280 38.6 56.3 0.00 0.03 0.03 62 1010.9
20260507155026 23 268 32.2 62.8 0.00 0.03 0.03 63 1010.9
20260507154639 24 284 33.8 62.8 0.00 0.03 0.03 62 1010.9
20260507154041 24 275 37.0 61.2 0.00 0.03 0.03 64 1011.0
20260507153548 24 272 33.8 54.7 0.00 0.03 0.03 64 1011.1
20260507153133 24 268 22.5 54.7 0.00 0.03 0.03 64 1011.2
20260507152545 23 261 24.1 53.1 0.00 0.03 0.03 65 1011.0
20260507152043 23 263 30.6 54.7 0.00 0.03 0.03 63 1011.1
20260507151635 23 268 38.6 57.9 0.00 0.03 0.03 64 1011.6
20260507151041 23 286 25.7 57.9 0.00 0.03 0.03 66 1011.9
20260507150520 23 269 25.7 51.5 0.00 0.03 0.03 67 1011.9
20260507150142 22 261 30.6 45.1 0.00 0.03 0.03 68 1012.2
20260507145532 22 264 22.5 49.9 0.00 0.03 0.03 69 1012.2
20260507145034 21 261 22.5 43.5 0.00 0.03 0.03 71 1012.2
20260507144635 21 259 25.7 43.5 0.00 0.03 0.03 71 1012.3
20260507144027 21 265 24.1 49.9 0.00 0.03 0.03 71 1012.5
20260507143542 21 306 27.4 49.9 0.00 0.03 0.03 71 1012.8
20260507143103 21 259 22.5 46.7 0.00 0.03 0.03 71 1012.8
20260507142541 22 255 24.1 45.1 0.00 0.03 0.03 70 1013.2
20260507142019 22 294 27.4 49.9 0.00 0.03 0.03 70 1013.2
20260507141634 22 281 32.2 49.9 0.00 0.03 0.03 71 1013.3
20260507141037 22 272 22.5 45.1 0.00 0.03 0.03 72 1013.5
20260507140533 21 257 25.7 49.9 0.00 0.03 0.03 71 1013.6
20260507140141 21 282 27.4 49.9 0.00 0.03 0.03 71 1013.8
20260507135530 21 272 29.0 43.5 0.00 0.03 0.03 71 1013.9
20260507135024 21 263 17.7 37.0 0.00 0.03 0.03 72 1014.0
20260507134634 21 297 19.3 30.6 0.00 0.03 0.03 73 1014.0
20260507134021 21 265 17.7 33.8 0.00 0.03 0.03 72 1014.2
20260507133521 21 263 20.9 33.8 0.00 0.03 0.03 72 1014.2
20260507133153 21 261 14.5 37.0 0.00 0.03 0.03 73 1014.4
20260507132526 21 265 20.9 46.7 0.00 0.03 0.03 73 1014.4
20260507132041 20 293 24.1 46.7 0.00 0.03 0.03 73 1014.4
20260507131647 20 277 16.1 41.8 0.00 0.03 0.03 74 1014.6
20260507131044 21 273 20.9 41.8 0.00 0.03 0.03 74 1014.4
20260507130541 21 288 20.9 40.2 0.00 0.03 0.03 73 1014.5
20260507130154 21 277 20.9 40.2 0.00 0.03 0.03 74 1014.4
20260507125526 21 281 25.7 40.2 0.00 0.03 0.03 75 1014.5
20260507125042 20 282 16.1 29.0 0.00 0.03 0.03 77 1014.7
20260507124653 20 259 19.3 37.0 0.00 0.03 0.03 77 1014.7
20260507124019 20 262 20.9 37.0 0.00 0.03 0.03 77 1014.7
20260507123517 20 271 17.7 38.6 0.00 0.03 0.03 77 1014.9
20260507123201 20 271 19.3 38.6 0.00 0.03 0.03 77 1014.7
20260507122529 19 247 16.1 32.2 0.00 0.03 0.03 77 1014.7
20260507122036 19 261 17.7 32.2 0.00 0.03 0.03 78 1014.8
20260507121700 19 269 17.7 27.4 0.00 0.03 0.03 79 1014.7
20260507121026 18 287 12.9 27.4 0.00 0.03 0.03 80 1015.0
20260507120520 18 261 16.1 25.7 0.00 0.03 0.03 81 1014.9
20260507120155 18 298 14.5 25.7 0.00 0.03 0.03 81 1015.1
20260507115526 18 273 14.5 27.4 0.00 0.03 0.03 82 1015.2
20260507115040 18 347 16.1 27.4 0.00 0.03 0.03 82 1015.4
20260507114707 18 262 11.3 32.2 0.00 0.03 0.03 82 1015.2
20260507114026 18 292 14.5 32.2 0.00 0.03 0.03 81 1015.2
20260507113524 18 273 12.9 30.6 0.00 0.03 0.03 82 1015.3
20260507113126 18 284 12.9 27.4 0.00 0.03 0.03 82 1015.3
20260507112515 18 267 11.3 27.4 0.00 0.03 0.03 82 1015.3
20260507112028 18 254 12.9 22.5 0.00 0.03 0.03 82 1015.4
20260507111700 18 261 9.7 22.5 0.00 0.03 0.03 82 1015.4
20260507111024 18 323 8.0 20.9 0.00 0.03 0.03 82 1015.3
20260507110533 18 286 11.3 20.9 0.00 0.03 0.03 82 1015.4
20260507110205 17 310 11.3 20.9 0.00 0.03 0.03 82 1015.5
20260507105538 17 305 8.0 20.9 0.00 0.03 0.03 82 1015.4
20260507105031 17 9 12.9 24.1 0.03 0.03 0.03 83 1015.4
20260507104655 17 309 11.3 24.1 0.03 0.03 0.03 83 1015.2
20260507104015 17 317 14.5 27.4 0.03 0.03 0.03 83 1015.3
20260507103533 17 338 14.5 27.4 0.03 0.03 0.03 83 1015.4
20260507103155 17 323 9.7 25.7 0.03 0.03 0.03 83 1015.4
20260507102521 17 265 12.9 22.5 0.03 0.03 0.03 82 1015.1
20260507102037 17 269 11.3 22.5 0.03 0.03 0.03 82 1015.3
20260507101649 17 289 9.7 16.1 0.03 0.03 0.03 82 1015.1
20260507101038 17 265 6.4 14.5 0.03 0.03 0.03 82 1015.2
20260507100519 17 57 9.7 22.5 0.03 0.03 0.03 82 1015.4
20260507100154 18 311 9.7 22.5 0.03 0.03 0.03 82 1015.5
20260507095520 18 334 6.4 14.5 0.03 0.03 0.03 81 1015.2
20260507095032 18 257 6.4 14.5 0.00 0.00 0.00 81 1015.2
20260507094625 18 261 6.4 16.1 0.00 0.00 0.00 81 1015.2
20260507094017 18 70 6.4 17.7 0.00 0.00 0.00 81 1015.3
20260507093527 18 51 4.8 17.7 0.00 0.00 0.00 81 1015.4
20260507093112 18 51 6.4 16.1 0.00 0.00 0.00 81 1015.5
20260507092546 18 296 6.4 16.1 0.00 0.00 0.00 81 1015.3
20260507092025 18 310 6.4 17.7 0.00 0.00 0.00 81 1015.3
20260507091653 18 259 8.0 17.7 0.00 0.00 0.00 80 1015.2
20260507091023 18 304 9.7 17.7 0.00 0.00 0.00 80 1015.4
20260507090542 18 317 6.4 16.1 0.00 0.00 0.00 80 1015.3
20260507090157 18 279 8.0 17.7 0.00 0.00 0.00 80 1015.3
20260507085533 18 282 8.0 22.5 0.00 0.00 0.00 79 1015.5
20260507085016 18 54 9.7 20.9 0.00 0.00 0.00 79 1015.5
20260507084624 18 284 11.3 20.9 0.00 0.00 0.00 79 1015.4
20260507084032 18 300 8.0 22.5 0.00 0.00 0.00 79 1015.4
20260507083517 18 323 8.0 22.5 0.00 0.00 0.00 79 1015.5
20260507083147 18 309 6.4 17.7 0.00 0.00 0.00 79 1015.6
20260507082539 18 268 9.7 17.7 0.00 0.00 0.00 79 1015.5
20260507082023 18 268 6.4 16.1 0.00 0.00 0.00 79 1015.7
20260507081644 18 259 9.7 19.3 0.00 0.00 0.00 79 1015.5
20260507081038 18 289 9.7 19.3 0.00 0.00 0.00 80 1015.6
20260507080532 18 286 6.4 14.5 0.00 0.00 0.00 80 1015.7
20260507080151 18 41 4.8 14.5 0.00 0.00 0.00 80 1015.4
20260507075517 18 291 4.8 16.1 0.00 0.00 0.00 80 1015.7
20260507075033 18 55 6.4 16.1 0.00 0.00 0.00 80 1015.9
20260507074630 18 334 4.8 14.5 0.00 0.00 0.00 81 1016.1
20260507074017 18 293 6.4 12.9 0.00 0.00 0.00 81 1015.9
20260507073524 18 262 6.4 12.9 0.00 0.00 0.00 81 1016.1
20260507073135 18 319 6.4 16.1 0.00 0.00 0.00 81 1016.0
20260507072536 18 282 8.0 19.3 0.00 0.00 0.00 81 1016.1
20260507072031 18 265 4.8 19.3 0.00 0.00 0.00 81 1016.3
20260507071630 17 304 6.4 16.1 0.00 0.00 0.00 82 1016.3
20260507071027 17 296 6.4 14.5 0.00 0.00 0.00 82 1016.3
20260507070542 17 309 6.4 14.5 0.00 0.00 0.00 81 1016.4
20260507070116 17 24 6.4 20.9 0.00 0.00 0.00 81 1016.5
20260507065539 18 314 8.0 20.9 0.00 0.00 0.00 81 1016.5
20260507065033 18 332 8.0 17.7 0.00 0.00 0.00 81 1016.4
20260507064700 18 265 6.4 17.7 0.00 0.00 0.00 80 1016.5
20260507064041 18 317 8.0 19.3 0.00 0.00 0.00 80 1016.7
20260507063527 18 265 9.7 19.3 0.00 0.00 0.00 80 1016.4
20260507063141 18 275 9.7 22.5 0.00 0.00 0.00 80 1016.4
20260507062519 17 262 11.3 22.5 0.00 0.00 0.00 80 1016.5
20260507062033 17 272 8.0 19.3 0.00 0.00 0.00 80 1016.6
20260507061926 17 265 6.4 17.7 0.00 0.00 0.00 80 1016.7
20260507061757 17 265 6.4 17.7 0.00 0.00 0.00 80 1016.7
20260507061033 17 300 8.0 17.7 0.00 0.00 0.00 80 1016.9
20260507060535 17 344 11.3 22.5 0.00 0.00 0.00 80 1016.9
20260507060233 17 360 11.3 22.5 0.00 0.00 0.00 80 1017.0
20260507055540 17 309 9.7 19.3 0.00 0.03 0.00 80 1017.1
20260507055033 17 280 11.3 22.5 0.00 0.03 0.00 81 1016.9
20260507054801 17 295 11.3 25.7 0.00 0.03 0.00 82 1017.2
20260507054019 16 302 11.3 25.7 0.00 0.03 0.00 84 1017.1
20260507053537 16 273 8.0 12.9 0.00 0.03 0.00 84 1017.2
20260507053241 16 265 4.8 11.3 0.00 0.03 0.00 83 1017.4
20260507052537 16 268 6.4 11.3 0.00 0.03 0.00 83 1017.4
20260507052042 16 273 4.8 12.9 0.00 0.03 0.00 83 1017.4
20260507051802 16 257 8.0 12.9 0.00 0.03 0.00 83 1017.5
20260507051022 16 269 6.4 12.9 0.00 0.03 0.00 83 1017.6
20260507050542 16 261 6.4 11.3 0.00 0.03 0.00 84 1017.6
20260507050322 16 271 4.8 16.1 0.00 0.03 0.00 85 1017.7
20260507045538 16 265 8.0 16.1 0.00 0.03 0.00 87 1017.7
20260507045037 15 271 1.6 14.5 0.00 0.03 0.00 89 1017.7
20260507044736 15 76 1.6 3.2 0.00 0.03 0.00 90 1018.1
20260507044048 15 76 1.6 3.2 0.00 0.03 0.00 90 1018.1
20260507043531 15 76 1.6 3.2 0.00 0.03 0.00 90 1018.3
20260507043307 15 76 1.6 3.2 0.00 0.03 0.00 90 1018.5
20260507042542 15 76 1.6 3.2 0.00 0.03 0.00 90 1018.3
20260507042029 15 76 1.6 3.2 0.00 0.03 0.00 90 1018.3
20260507041748 15 76 1.6 3.2 0.00 0.03 0.00 90 1018.6
20260507041029 15 76 1.6 3.2 0.00 0.03 0.00 90 1018.5
20260507040525 15 76 1.6 3.2 0.00 0.03 0.00 91 1018.6
20260507040304 15 76 1.6 3.2 0.00 0.03 0.00 91 1018.6
20260507035519 15 76 1.6 3.2 0.00 0.03 0.00 91 1018.8
20260507035025 15 76 1.6 3.2 0.00 0.03 0.00 91 1018.8
20260507034826 15 76 1.6 3.2 0.00 0.03 0.00 91 1018.9
20260507034045 15 76 1.6 3.2 0.00 0.03 0.00 91 1018.9
20260507033532 15 76 1.6 3.2 0.00 0.03 0.00 91 1019.1
20260507033204 14 76 1.6 3.2 0.00 0.03 0.00 90 1019.1
20260507032538 14 76 1.6 3.2 0.00 0.03 0.00 90 1019.1
20260507032041 14 76 1.6 3.2 0.00 0.03 0.00 90 1019.3
20260507031647 14 76 1.6 3.2 0.00 0.03 0.00 90 1019.3
20260507031026 14 76 1.6 3.2 0.00 0.03 0.00 90 1019.3
20260507030542 15 76 0.0 3.2 0.00 0.03 0.00 90 1019.3
20260507030230 15 93 0.0 3.2 0.00 0.03 0.00 90 1019.6
20260507025525 15 137 0.0 1.6 0.00 0.03 0.03 90 1019.4
20260507025041 15 93 0.0 1.6 0.00 0.03 0.03 91 1019.5
20260507024655 15 51 0.0 1.6 0.00 0.03 0.03 90 1019.6
20260507024023 14 34 0.0 1.6 0.00 0.03 0.03 90 1019.6
20260507023536 14 93 0.0 1.6 0.00 0.03 0.03 90 1019.7
20260507023202 14 93 0.0 1.6 0.00 0.03 0.03 90 1019.8
20260507022545 14 178 0.0 1.6 0.00 0.03 0.03 90 1019.8
20260507022025 14 9 0.0 1.6 0.00 0.03 0.03 89 1019.9
20260507021651 14 93 0.0 1.6 0.00 0.03 0.03 89 1019.8
20260507021028 14 51 0.0 1.6 0.00 0.03 0.03 89 1019.6
20260507020538 14 93 0.0 1.6 0.00 0.03 0.03 89 1019.7
20260507020230 14 93 0.0 1.6 0.00 0.03 0.03 89 1019.7
20260507015531 14 51 0.0 1.6 0.00 0.03 0.03 89 1019.9
20260507015033 14 51 0.0 1.6 0.00 0.03 0.03 89 1019.9
20260507014642 14 265 0.0 1.6 0.00 0.03 0.03 89 1020.0
20260507014041 15 93 0.0 1.6 0.00 0.03 0.03 89 1020.0
20260507013525 15 93 0.0 1.6 0.00 0.03 0.03 89 1020.1
20260507013209 15 51 0.0 1.6 0.00 0.03 0.03 89 1020.2
20260507012538 14 309 0.0 1.6 0.00 0.03 0.03 89 1020.2
20260507012044 14 137 0.0 1.6 0.00 0.03 0.03 88 1020.1
20260507011652 14 51 0.0 0.0 0.00 0.03 0.03 88 1020.2
20260507011040 14 93 0.0 1.6 0.00 0.03 0.03 87 1020.2
20260507010524 15 93 0.0 1.6 0.00 0.03 0.03 87 1020.3
20260507010207 15 51 0.0 0.0 0.00 0.03 0.03 87 1020.2
20260507005542 15 93 0.0 0.0 0.00 0.03 0.03 87 1020.0
20260507005033 15 137 0.0 0.0 0.00 0.03 0.03 86 1020.3
20260507004617 15 93 0.0 1.6 0.00 0.03 0.03 86 1020.2
20260507004029 15 178 0.0 1.6 0.00 0.03 0.03 86 1020.0
20260507003526 15 93 0.0 1.6 0.00 0.03 0.03 87 1020.2
20260507003149 15 137 0.0 3.2 0.00 0.03 0.03 87 1020.2
20260507002539 15 178 0.0 3.2 0.00 0.03 0.03 87 1020.1
20260507002031 15 93 0.0 3.2 0.00 0.03 0.03 87 1020.2
20260507001707 15 137 0.0 1.6 0.00 0.03 0.03 86 1020.3
20260507001036 16 51 0.0 1.6 0.00 0.03 0.03 87 1020.4
20260507000544 16 137 0.0 1.6 0.00 0.03 0.03 87 1020.4
20260507000240 16 51 0.0 0.0 0.00 0.03 0.03 86 1020.3
20260506235530 16 9 0.0 1.6 0.00 0.03 0.03 86 1020.2
20260506235025 16 9 0.0 1.6 0.00 0.03 0.03 86 1020.3
20260506234643 16 265 0.0 1.6 0.00 0.03 0.03 86 1020.2
20260506234022 16 51 0.0 3.2 0.00 0.03 0.03 87 1020.4
20260506233536 16 51 0.0 3.2 0.00 0.03 0.03 87 1020.3
20260506233121 16 178 0.0 3.2 0.00 0.03 0.03 86 1020.3
20260506232543 16 178 0.0 3.2 0.00 0.03 0.03 86 1020.3
20260506232041 16 265 0.0 1.6 0.00 0.03 0.03 86 1020.5
20260506231724 16 67 0.0 1.6 0.00 0.03 0.03 85 1020.4
20260506231024 16 51 0.0 1.6 0.00 0.03 0.03 85 1020.5
20260506230526 17 51 0.0 1.6 0.00 0.03 0.03 85 1020.7
20260506230220 17 137 0.0 3.2 0.00 0.03 0.03 85 1020.5
20260506225538 17 291 0.0 3.2 0.00 0.03 0.03 84 1020.5